DM5RC Weather Reports


Display with metric or nautical units.
time (UTC)temp
F
wind
direction
speed
MPH
gust
MPH
rain 1hr
in
rain 24hr
in
rain mn
in
humidity
%
barometer
mb
20260508204813 53 39 1.0 4.0 0.00 0.12 0.02 80 1020.1
20260508204313 53 46 2.0 4.0 0.00 0.12 0.02 80 1020.1
20260508203816 53 62 2.0 6.0 0.00 0.12 0.02 79 1020.0
20260508203317 53 63 3.0 6.0 0.00 0.12 0.02 79 1020.0
20260508202840 53 48 4.0 6.0 0.00 0.12 0.02 79 1019.9
20260508202336 53 64 3.0 5.0 0.00 0.12 0.02 79 1019.9
20260508201818 53 48 1.0 4.0 0.00 0.12 0.02 79 1020.0
20260508201321 53 48 3.0 4.0 0.00 0.12 0.02 80 1020.0
20260508200824 54 58 2.0 5.0 0.00 0.12 0.02 79 1020.0
20260508200327 54 54 2.0 5.0 0.00 0.12 0.02 79 1020.0
20260508195827 54 47 3.0 5.0 0.00 0.12 0.02 79 1019.9
20260508195330 54 44 3.0 5.0 0.00 0.12 0.02 79 1019.9
20260508194813 54 56 2.0 6.0 0.00 0.12 0.02 79 1019.9
20260508194315 54 53 3.0 5.0 0.00 0.12 0.02 79 1019.9
20260508193819 54 45 3.0 6.0 0.00 0.12 0.02 78 1019.9
20260508193320 54 70 4.0 6.0 0.00 0.12 0.02 78 1019.9
20260508192843 54 39 3.0 6.0 0.00 0.12 0.02 77 1019.8
20260508192326 54 38 4.0 6.0 0.00 0.12 0.02 77 1019.8
20260508191830 54 71 2.0 5.0 0.00 0.12 0.02 76 1019.7
20260508191335 54 32 2.0 5.0 0.00 0.12 0.02 76 1019.7
20260508190839 54 47 3.0 5.0 0.00 0.12 0.02 75 1019.7
20260508190319 54 52 2.0 5.0 0.00 0.12 0.02 75 1019.6
20260508185823 54 16 3.0 5.0 0.00 0.16 0.02 75 1019.6
20260508185327 54 53 3.0 6.0 0.00 0.16 0.02 75 1019.6
20260508184831 54 36 2.0 5.0 0.00 0.16 0.02 74 1019.5
20260508184316 54 42 3.0 5.0 0.00 0.16 0.02 74 1019.6
20260508183819 54 55 3.0 5.0 0.00 0.16 0.02 74 1019.5
20260508183320 54 47 2.0 5.0 0.00 0.16 0.02 74 1019.5
20260508182842 54 46 2.0 5.0 0.00 0.16 0.02 73 1019.5
20260508182323 54 54 2.0 4.0 0.00 0.16 0.02 73 1019.4
20260508181824 54 32 2.0 4.0 0.00 0.16 0.02 73 1019.3
20260508181324 54 32 2.0 5.0 0.00 0.16 0.02 73 1019.3
20260508180822 54 48 2.0 5.0 0.00 0.16 0.02 74 1019.2
20260508180323 54 3 1.0 4.0 0.00 0.16 0.02 75 1019.2
20260508175843 54 41 2.0 6.0 0.00 0.24 0.02 75 1019.1
20260508175322 55 30 2.0 7.0 0.00 0.24 0.02 74 1019.2
20260508174824 55 18 2.0 7.0 0.00 0.24 0.02 74 1019.1
20260508174326 55 32 3.0 6.0 0.00 0.24 0.02 75 1019.1
20260508173829 55 32 2.0 6.0 0.00 0.24 0.02 75 1019.1
20260508173312 55 30 2.0 4.0 0.00 0.24 0.02 75 1019.1
20260508172815 55 41 2.0 4.0 0.00 0.24 0.02 75 1019.1
20260508172317 55 45 3.0 4.0 0.00 0.24 0.02 74 1019.1
20260508171840 55 52 2.0 4.0 0.00 0.24 0.02 74 1019.1
20260508171322 55 44 2.0 6.0 0.00 0.24 0.02 74 1019.0
20260508170824 55 54 3.0 6.0 0.00 0.24 0.02 73 1019.0
20260508170327 55 35 2.0 5.0 0.00 0.24 0.02 73 1019.0
20260508165831 55 70 2.0 7.0 0.00 0.67 0.02 73 1018.9
20260508165315 55 42 3.0 7.0 0.00 0.67 0.02 73 1018.8
20260508164820 55 27 3.0 6.0 0.00 0.67 0.02 74 1018.8
20260508164326 55 64 2.0 5.0 0.00 0.67 0.02 73 1018.9
20260508163832 55 61 2.0 5.0 0.00 0.67 0.02 73 1018.9
20260508163313 55 30 3.0 5.0 0.00 0.67 0.02 72 1018.9
20260508162836 55 51 2.0 5.0 0.00 0.67 0.02 71 1018.9
20260508162338 56 62 3.0 4.0 0.00 0.67 0.02 72 1018.9
20260508161819 56 34 2.0 6.0 0.00 0.67 0.02 72 1018.9
20260508161321 56 29 2.0 6.0 0.00 0.67 0.02 72 1019.0
20260508160823 56 46 2.0 7.0 0.00 0.67 0.02 72 1018.9
20260508160323 56 46 3.0 7.0 0.00 0.67 0.02 71 1019.0
20260508155823 56 21 3.0 5.0 0.00 0.87 0.02 71 1018.9
20260508155326 56 39 2.0 5.0 0.00 0.87 0.02 71 1018.9
20260508154829 56 65 2.0 5.0 0.00 0.87 0.02 71 1018.9
20260508154314 56 62 3.0 6.0 0.00 0.87 0.02 71 1018.9
20260508153817 56 55 5.0 9.0 0.00 0.87 0.02 70 1018.9
20260508153322 56 63 4.0 6.0 0.00 0.87 0.02 70 1018.8
20260508152827 56 58 3.0 8.0 0.00 0.87 0.02 70 1018.8
20260508152330 56 34 4.0 8.0 0.00 0.87 0.02 69 1018.8
20260508151831 56 53 5.0 7.0 0.00 0.87 0.02 68 1018.8
20260508151331 57 56 3.0 6.0 0.00 0.87 0.02 69 1018.8
20260508150829 57 44 3.0 7.0 0.00 0.87 0.02 68 1018.7
20260508150330 57 53 1.0 4.0 0.00 0.87 0.02 68 1018.8
20260508145829 57 53 0.0 2.0 0.00 0.87 0.02 69 1018.8
20260508145330 57 53 1.0 3.0 0.00 0.87 0.02 67 1018.9
20260508144831 57 57 1.0 4.0 0.00 0.87 0.02 67 1018.9
20260508144314 57 58 1.0 4.0 0.00 0.87 0.02 68 1018.9
20260508143838 57 55 1.0 4.0 0.00 0.87 0.02 66 1018.8
20260508143320 57 61 1.0 4.0 0.00 0.87 0.02 67 1018.8
20260508142823 58 50 0.0 3.0 0.00 0.87 0.02 67 1018.9
20260508142326 58 133 1.0 3.0 0.00 0.87 0.02 67 1018.9
20260508141829 58 110 0.0 4.0 0.00 0.87 0.02 68 1018.9
20260508141332 58 49 2.0 4.0 0.00 0.87 0.02 67 1018.9
20260508140835 57 36 0.0 4.0 0.00 0.87 0.02 69 1019.0
20260508140359 57 7 1.0 6.0 0.00 0.87 0.02 70 1018.9
20260508135842 57 23 4.0 6.0 0.00 0.87 0.02 68 1019.0
20260508135322 57 58 3.0 6.0 0.00 0.87 0.02 69 1018.9
20260508134825 57 46 1.0 5.0 0.00 0.87 0.02 69 1018.9
20260508134327 57 33 2.0 4.0 0.00 0.87 0.02 70 1018.9
20260508133830 57 51 2.0 5.0 0.00 0.87 0.02 71 1018.9
20260508133313 56 46 3.0 6.0 0.00 0.87 0.02 71 1018.9
20260508132814 56 8 2.0 6.0 0.00 0.87 0.02 71 1018.9
20260508132318 56 51 1.0 6.0 0.00 0.87 0.02 71 1018.9
20260508131822 56 53 4.0 7.0 0.00 0.87 0.02 69 1018.9
20260508131344 57 68 3.0 7.0 0.00 0.87 0.02 70 1019.0
20260508130825 57 349 2.0 6.0 0.00 0.87 0.02 71 1019.0
20260508130349 57 8 3.0 6.0 0.00 0.87 0.02 69 1019.0
20260508125829 58 49 2.0 7.0 0.00 0.87 0.02 70 1019.1
20260508125329 57 51 2.0 7.0 0.00 0.87 0.02 71 1019.1
20260508124830 58 48 4.0 7.0 0.00 0.87 0.02 70 1019.1
20260508124313 58 44 3.0 5.0 0.00 0.87 0.02 68 1019.2
20260508123817 58 91 1.0 5.0 0.00 0.87 0.02 68 1019.2
20260508123320 58 125 3.0 5.0 0.00 0.87 0.02 68 1019.2
20260508122826 59 57 2.0 6.0 0.00 0.87 0.02 69 1019.2
20260508122327 58 57 2.0 7.0 0.00 0.87 0.02 68 1019.2
20260508121847 58 71 2.0 7.0 0.00 0.87 0.02 71 1019.1
20260508121327 57 49 4.0 7.0 0.00 0.87 0.02 71 1019.1
20260508120828 57 50 4.0 7.0 0.00 0.87 0.02 72 1019.1
20260508120327 56 49 5.0 7.0 0.00 0.87 0.02 69 1019.1
20260508115848 57 38 3.0 6.0 0.00 0.87 0.02 72 1019.2
20260508115328 56 11 3.0 6.0 0.00 0.87 0.02 70 1019.1
20260508114829 57 50 3.0 6.0 0.00 0.87 0.02 70 1019.2
20260508114332 57 45 2.0 5.0 0.00 0.87 0.02 70 1019.2
20260508113814 56 53 2.0 6.0 0.00 0.87 0.02 71 1019.3
20260508113336 56 70 3.0 6.0 0.00 0.87 0.02 70 1019.2
20260508112819 55 346 3.0 6.0 0.00 0.87 0.02 72 1019.3
20260508112322 55 47 1.0 5.0 0.00 0.87 0.02 72 1019.3
20260508111824 55 27 2.0 8.0 0.00 0.87 0.02 72 1019.3
20260508111327 55 46 6.0 8.0 0.00 0.87 0.02 73 1019.3
20260508110830 56 44 4.0 7.0 0.00 0.87 0.02 72 1019.3
20260508110313 55 27 1.0 7.0 0.00 0.87 0.02 74 1019.3
20260508105817 55 46 2.0 7.0 0.00 1.02 0.02 73 1019.4
20260508105321 55 6 3.0 7.0 0.00 1.02 0.02 75 1019.4
20260508104823 55 11 3.0 8.0 0.00 1.02 0.02 76 1019.4
20260508104326 55 39 6.0 8.0 0.00 1.02 0.02 73 1019.4
20260508103828 56 29 3.0 8.0 0.00 1.02 0.02 73 1019.4
20260508103331 55 39 5.0 8.0 0.00 1.02 0.02 73 1019.3
20260508102813 56 1 5.0 7.0 0.00 1.02 0.02 75 1019.3
20260508102315 55 16 4.0 9.0 0.00 1.02 0.02 77 1019.3
20260508101818 54 34 4.0 9.0 0.00 1.02 0.02 77 1019.2
20260508101321 55 27 6.0 9.0 0.00 1.02 0.02 75 1019.3
20260508100824 54 18 4.0 8.0 0.00 1.02 0.02 78 1019.3
20260508100325 54 39 4.0 8.0 0.00 1.02 0.02 77 1019.4
20260508095828 54 354 4.0 7.0 0.00 1.46 0.02 76 1019.4
20260508095329 54 48 3.0 7.0 0.00 1.46 0.02 78 1019.4
20260508094830 54 39 4.0 7.0 0.00 1.46 0.02 77 1019.4
20260508094332 54 53 4.0 6.0 0.00 1.46 0.02 77 1019.4
20260508093816 54 56 3.0 6.0 0.00 1.46 0.02 76 1019.4
20260508093318 54 50 2.0 7.0 0.00 1.46 0.02 78 1019.3
20260508092821 54 47 4.0 7.0 0.00 1.46 0.02 79 1019.3
20260508092324 53 51 2.0 7.0 0.00 1.46 0.02 81 1019.3
20260508091845 53 52 3.0 8.0 0.00 1.46 0.02 81 1019.4
20260508091325 53 52 6.0 8.0 0.00 1.46 0.02 80 1019.4
20260508090825 53 91 2.0 5.0 0.00 1.46 0.02 81 1019.4
20260508090325 53 44 2.0 6.0 0.00 1.46 0.02 80 1019.5
20260508085828 53 338 2.0 6.0 0.00 1.77 0.02 81 1019.5
20260508085329 52 44 2.0 4.0 0.00 1.77 0.02 81 1019.4
20260508084834 53 46 1.0 5.0 0.00 1.77 0.02 82 1019.4
20260508084313 52 45 2.0 5.0 0.00 1.77 0.02 84 1019.3
20260508083813 51 46 2.0 6.0 0.00 1.77 0.02 84 1019.4
20260508083314 51 41 2.0 6.0 0.00 1.77 0.02 86 1019.3
20260508082818 51 58 2.0 6.0 0.00 1.77 0.02 86 1019.3
20260508081823 51 35 2.0 5.0 0.00 1.77 0.02 87 1019.3
20260508081323 50 61 2.0 7.0 0.00 1.77 0.02 87 1019.2
20260508080824 50 57 3.0 8.0 0.00 1.77 0.02 88 1019.2
20260508080344 50 66 2.0 8.0 0.00 1.77 0.02 90 1019.1
20260508075842 49 60 4.0 7.0 0.00 1.77 0.02 90 1019.2
20260508075321 49 70 3.0 7.0 0.00 1.77 0.02 90 1019.2
20260508074821 49 30 2.0 6.0 0.00 1.77 0.02 90 1019.2
20260508074323 49 58 5.0 6.0 0.00 1.77 0.02 90 1019.2
20260508073825 48 43 3.0 6.0 0.00 1.77 0.02 90 1019.2
20260508073326 49 53 3.0 5.0 0.00 1.77 0.02 91 1019.1
20260508072829 48 66 3.0 6.0 0.00 1.77 0.02 91 1019.1
20260508072326 48 61 3.0 6.0 0.00 1.77 0.02 92 1019.0
20260508071828 48 46 3.0 6.0 0.00 1.77 0.02 92 1019.0
20260508071315 48 49 3.0 7.0 0.00 1.77 0.02 92 1019.0
20260508070819 48 31 2.0 7.0 0.00 1.77 0.02 92 1018.9
20260508070322 48 46 3.0 5.0 0.00 1.77 0.02 92 1018.9
20260508065824 48 68 3.0 7.0 0.00 1.81 0.02 92 1018.9
20260508065343 47 45 4.0 7.0 0.00 1.81 0.02 92 1018.8
20260508064823 48 39 3.0 7.0 0.00 1.81 0.02 93 1018.7
20260508064346 48 51 2.0 7.0 0.00 1.81 0.02 93 1018.7
20260508063819 47 23 1.0 6.0 0.00 1.81 0.02 93 1018.6
20260508063321 47 61 2.0 7.0 0.00 1.81 0.02 93 1018.6
20260508062821 47 46 4.0 7.0 0.00 1.81 0.02 93 1018.6
20260508062321 47 36 4.0 7.0 0.00 1.81 0.02 93 1018.5
20260508061822 47 47 2.0 6.0 0.00 1.81 0.02 94 1018.5
20260508061322 47 33 2.0 6.0 0.00 1.81 0.02 93 1018.5
20260508060823 47 62 4.0 8.0 0.00 1.81 0.02 93 1018.4
20260508060346 47 358 4.0 8.0 0.00 1.81 0.02 93 1018.4
20260508055824 47 56 3.0 7.0 0.00 1.81 0.02 93 1018.4
20260508055346 47 82 3.0 6.0 0.00 1.81 0.02 94 1018.4
20260508054828 47 49 2.0 7.0 0.00 1.81 0.02 94 1018.3
20260508054331 46 354 2.0 7.0 0.00 1.81 0.02 94 1018.3
20260508053833 46 65 3.0 8.0 0.00 1.81 0.02 94 1018.2
20260508053313 46 18 3.0 7.0 0.00 1.81 0.02 93 1018.2
20260508052813 46 37 4.0 7.0 0.00 1.81 0.02 94 1018.2
20260508052312 46 46 2.0 8.0 0.00 1.81 0.02 94 1018.2
20260508051833 46 26 4.0 8.0 0.00 1.81 0.02 94 1018.2
20260508051314 46 44 3.0 6.0 0.00 1.81 0.02 93 1018.2
20260508050813 46 42 3.0 8.0 0.00 1.81 0.02 93 1018.3
20260508050330 46 34 3.0 8.0 0.00 1.81 0.02 93 1018.2
20260508045831 46 64 2.0 8.0 0.00 1.89 0.02 93 1018.2
20260508045314 46 51 5.0 8.0 0.00 1.89 0.02 93 1018.1
20260508044816 46 50 5.0 8.0 0.00 1.89 0.02 93 1018.1
20260508044338 46 44 4.0 8.0 0.00 1.89 0.02 93 1018.1
20260508043820 46 51 3.0 8.0 0.00 1.89 0.02 93 1018.0
20260508043343 46 44 3.0 8.0 0.00 1.89 0.02 93 1018.0
20260508042844 46 31 4.0 8.0 0.00 1.89 0.02 93 1018.0
20260508042325 46 49 2.0 6.0 0.00 1.89 0.02 93 1017.9
20260508041829 46 13 3.0 9.0 0.00 1.89 0.02 93 1017.8
20260508041331 46 53 3.0 7.0 0.00 1.89 0.02 93 1017.7
20260508040835 46 57 2.0 5.0 0.00 1.89 0.02 93 1017.7
20260508040317 46 61 2.0 7.0 0.00 1.89 0.02 93 1017.7
20260508035818 46 58 3.0 8.0 0.00 2.09 0.02 93 1017.7
20260508035318 46 18 4.0 8.0 0.00 2.09 0.02 93 1017.7
20260508034822 46 52 3.0 8.0 0.00 2.09 0.02 93 1017.6
20260508034325 46 46 3.0 9.0 0.00 2.09 0.02 94 1017.7
20260508033828 46 39 4.0 9.0 0.00 2.09 0.02 94 1017.6
20260508033352 46 25 1.0 6.0 0.00 2.09 0.02 94 1017.7
20260508032813 46 20 2.0 7.0 0.00 2.09 0.02 94 1017.6
20260508032315 46 337 2.0 8.0 0.00 2.09 0.02 94 1017.6
20260508031837 46 53 2.0 6.0 0.00 2.09 0.02 94 1017.6
20260508031319 46 42 3.0 7.0 0.00 2.09 0.02 94 1017.5
20260508030824 46 61 2.0 7.0 0.00 2.09 0.02 94 1017.5
20260508030348 46 61 3.0 7.0 0.00 2.09 0.02 94 1017.5
20260508025824 46 59 3.0 8.0 0.00 2.36 0.02 94 1017.6
20260508025348 46 45 4.0 8.0 0.00 2.36 0.02 94 1017.5
20260508024830 46 41 3.0 8.0 0.00 2.36 0.02 94 1017.5
20260508024314 46 25 3.0 8.0 0.00 2.36 0.02 94 1017.5
20260508023817 46 57 2.0 8.0 0.00 2.36 0.02 94 1017.5
20260508023319 46 357 2.0 7.0 0.00 2.36 0.02 94 1017.5
20260508022822 46 31 3.0 6.0 0.00 2.36 0.02 94 1017.5
20260508022344 46 43 1.0 6.0 0.00 2.36 0.02 94 1017.5
20260508021825 46 18 2.0 5.0 0.00 2.36 0.02 94 1017.5
20260508021325 46 14 2.0 5.0 0.00 2.36 0.02 94 1017.5
20260508020827 46 340 2.0 5.0 0.00 2.36 0.02 94 1017.5
20260508020314 46 9 2.0 5.0 0.00 2.36 0.02 94 1017.4
20260508015816 46 2 2.0 5.0 0.00 2.60 0.02 94 1017.4
20260508015335 46 24 2.0 6.0 0.00 2.60 0.02 94 1017.4
20260508014816 46 62 2.0 7.0 0.00 2.60 0.02 94 1017.5
20260508014320 46 32 3.0 7.0 0.00 2.60 0.02 94 1017.4
20260508013851 46 55 2.0 4.0 0.00 2.60 0.02 94 1017.4
20260508013314 46 29 1.0 6.0 0.00 2.60 0.02 94 1017.4
20260508012818 46 55 2.0 5.0 0.00 2.60 0.02 94 1017.3
20260508012320 46 57 2.0 8.0 0.00 2.60 0.02 94 1017.3
20260508011822 46 47 4.0 8.0 0.00 2.60 0.02 94 1017.2
20260508011325 46 48 2.0 8.0 0.00 2.60 0.02 94 1017.3
20260508010827 46 31 3.0 8.0 0.00 2.60 0.02 94 1017.2
20260508010328 46 39 2.0 7.0 0.00 2.60 0.02 95 1017.2
20260508005850 46 58 2.0 7.0 0.00 2.60 0.02 94 1017.2
20260508005314 46 7 2.0 6.0 0.00 2.60 0.02 95 1017.2
20260508004845 46 20 3.0 7.0 0.00 2.60 0.02 95 1017.2
20260508004326 46 51 3.0 7.0 0.00 2.60 0.02 95 1017.2
20260508003829 46 34 4.0 7.0 0.00 2.60 0.02 95 1017.1
20260508003330 46 8 3.0 7.0 0.04 2.60 0.02 95 1017.2
20260508002831 46 75 4.0 7.0 0.04 2.60 0.02 95 1017.2
20260508002351 46 8 3.0 7.0 0.04 2.60 0.02 95 1017.2
20260508001830 46 7 3.0 7.0 0.04 2.60 0.02 95 1017.3
20260508001324 46 36 2.0 6.0 0.04 2.60 0.02 95 1017.3
20260508000845 46 54 3.0 6.0 0.04 2.60 0.02 95 1017.3
20260508000327 46 34 2.0 5.0 0.04 2.60 0.02 95 1017.3
20260507235847 46 40 2.0 6.0 0.04 2.60 0.02 95 1017.3
20260507235347 46 76 3.0 6.0 0.04 2.60 0.02 95 1017.3
20260507234826 46 34 3.0 5.0 0.04 2.60 0.02 95 1017.4
20260507234326 46 45 3.0 5.0 0.04 2.60 0.02 95 1017.5
20260507233827 46 53 2.0 5.0 0.04 2.60 0.02 95 1017.5
20260507233350 46 31 1.0 5.0 0.00 2.56 0.01 95 1017.4
20260507232851 46 51 2.0 5.0 0.00 2.56 0.01 95 1017.5
20260507232353 46 54 2.0 5.0 0.00 2.56 0.01 95 1017.5
20260507231814 46 68 2.0 6.0 0.00 2.56 0.01 95 1017.4
20260507231339 46 60 3.0 6.0 0.04 2.56 0.01 95 1017.4
20260507230821 46 50 3.0 6.0 0.04 2.56 0.01 95 1017.5
20260507230324 46 56 1.0 6.0 0.04 2.56 0.01 95 1017.6
20260507225828 46 54 2.0 6.0 0.08 2.56 0.01 95 1017.5
20260507225351 46 61 3.0 6.0 0.08 2.56 0.01 95 1017.5
20260507224813 46 55 2.0 5.0 0.08 2.56 0.01 95 1017.5
20260507223828 46 44 2.0 6.0 0.08 2.56 0.01 95 1017.5
20260507223332 46 51 3.0 6.0 0.08 2.56 0.01 94 1017.5
20260507222814 46 50 2.0 7.0 0.08 2.56 0.01 94 1017.5
20260507222317 46 64 3.0 7.0 0.08 2.56 0.01 94 1017.5
20260507221820 46 60 2.0 7.0 0.04 2.52 0.00 94 1017.5
20260507221343 46 39 2.0 7.0 0.04 2.52 0.00 94 1017.4
20260507220823 46 47 3.0 6.0 0.04 2.52 0.00 94 1017.4
20260507220324 46 65 3.0 6.0 0.04 2.52 0.00 93 1017.4
20260507215826 47 30 3.0 9.0 0.00 2.48 0.50 93 1017.4
20260507215329 47 58 4.0 9.0 0.00 2.48 0.50 93 1017.4
20260507214852 47 54 2.0 6.0 0.00 2.48 0.50 93 1017.3
20260507214314 47 65 2.0 7.0 0.00 2.48 0.50 93 1017.4
20260507213830 47 36 4.0 7.0 0.00 2.48 0.50 93 1017.4
20260507213313 47 61 3.0 7.0 0.00 2.48 0.50 93 1017.3
20260507212815 47 13 2.0 7.0 0.00 2.48 0.50 94 1017.2
20260507212318 47 59 4.0 7.0 0.00 2.48 0.50 94 1017.2
20260507211824 47 9 3.0 9.0 0.00 2.48 0.50 94 1017.1
20260507211328 47 46 4.0 9.0 0.00 2.48 0.50 94 1017.2
20260507210831 47 57 3.0 6.0 0.00 2.48 0.50 94 1017.1
20260507210352 47 46 3.0 7.0 0.00 2.48 0.50 94 1017.0
20260507205812 47 68 5.0 7.0 0.00 2.48 0.50 94 1017.0
20260507205334 47 41 3.0 6.0 0.00 2.48 0.50 94 1016.9